Regional Weather Roundup
Issued by NWS

Home | Current Version | Previous Version | Text Only | Print | Product List | Glossary Off
Versions: 1 2 3 4 5 6 7 8 9 10 11 12 13 14 15 16 17 18 19 20 21 22 23 24 25 26 27 28 29 30 31 32 33 34 35 36 37 38 39 40 41 42 43 44 45 46 47 48 49 50

220
ASUS45 KSLC 211610
RWRUT

UTAH REGIONAL WEATHER ROUNDUP
NATIONAL WEATHER SERVICE SALT LAKE CITY UT
900 AM MST WED FEB 21 2018

UTZ001>011-023>025-211700-

NORTHERN UTAH

CITY           SKY/WX    TMP DP  RH WIND       PRES   REMARKS
BRIGHAM CITY   CLOUDY    15   7  69 NW5       30.18S WCI   8
HILL AFB       PTSUNNY    9  -2  62 E21       30.13R WCI -11
LOGAN          MOSUNNY    6  -1  73 CALM      30.18S
OGDEN          MOSUNNY   13   2  61 S6        30.15R WCI   4
SALT LAKE CITY PTSUNNY   21  11  65 SE8       30.16S WCI  11
TOOELE VALLEY  CLOUDY    19  10  68 S10       30.16R WCI   8
WENDOVER       PTSUNNY   19  10  68 E6        30.17R WCI  11
HEBER CITY       N/A      1  -4  78 CALM      30.14R
WEST JORDAN    MOSUNNY   17  10  74 SE8       30.15R WCI   6

$$

UTZ011>015-024>027-211700-

CENTRAL/NORTHEAST UTAH

CITY           SKY/WX    TMP DP  RH WIND       PRES   REMARKS
PROVO AIRPORT  MOSUNNY   14   4  64 SE7       30.19R WCI   4
MOAB/CANYONLAN PTSUNNY   25  14  63 SE7       30.14S WCI  17
DELTA          PTSUNNY   10   9  92 E3        30.12F
PRICE          MOSUNNY   15  -1  49 CALM      30.10R
RICHFIELD      SUNNY     12   9  85 CALM      30.14S
VERNAL         SUNNY     10  -1  61 CALM      30.19R

$$

UTZ013>016-019>022-027-211700-

SOUTHERN UTAH

CITY           SKY/WX    TMP DP  RH WIND       PRES   REMARKS
BRYCE CANYON   CLOUDY     9  -3  58 CALM      30.01R
CEDAR CITY     CLOUDY    14   5  67 CALM      30.05R
MILFORD        PTSUNNY   10   7  87 CALM      30.09S
ST GEORGE      MOSUNNY   30  17  58 CALM      30.15R
HANKSVILLE     PTSUNNY   19   1  45 CALM      30.19S
KANAB          PTSUNNY   28   3  34 N9        30.11S WCI  20
BLANDING         N/A     26   7  45 CALM      30.18S

$$

REGIONAL REPORTS     COLORADO/ARIZONA

CITY           SKY/WX    TMP DP  RH WIND       PRES   REMARKS
CRAIG, CO      SUNNY     -5  -7  91 CALM      30.15S
GRAND JUNCTION MOSUNNY   23  11  60 E15       30.17S WCI  10
RIFLE, CO      SUNNY     12   5  73 CALM      30.19R
MONTROSE, CO   SUNNY     16   6  65 CALM      30.19F
CORTEZ, CO     CLOUDY    24  13  62 VRB3      30.11F
COLORADO CITY    N/A     32   3  29 NE10      30.08S WCI  24
PAGE, AZ       PTSUNNY   29   8  41 CALM      30.10S
GRAND CANYON   MOSUNNY   24   3  40 E6        30.01S WCI  17
KINGMAN, AZ    MOSUNNY   30   4  33 S3        30.07R
FLAGSTAFF, AZ  SUNNY     21   4  47 E5        30.00R WCI  15

$$

REGIONAL REPORTS    NEVADA/IDAHO/WYOMING

CITY           SKY/WX    TMP DP  RH WIND       PRES   REMARKS
LAS VEGAS, NV  CLOUDY    42   1  18 CALM      30.12R
ELY, NY        CLOUDY    15   6  67 N8        30.04R WCI   4
ELKO, NV       MOSUNNY   12   3  67 CALM      30.10R
POCATELLO, ID  MOSUNNY   13   5  70 NE5       30.16R WCI   5
BURLEY, ID     PTSUNNY   13   7  77 NE3       30.13S
FORT BRIDGER,    N/A     -7 -14  71 N3        30.10R
EVANSTON, WY   CLOUDY     1 -10  60 SE6       30.03R WCI -10
ROCK SPRINGS,  SUNNY     -6 -10  83 S5        30.09S WCI -17

$$




USA.gov is the U.S. government's official web portal to all federal, state and local government web resources and services.